Corpus Christi, TX

4:33 PM CDT on August 20, 2017 (GMT -0500)
Corpus Christi International

Weather History for KCRP - November, 2011

Change the Weather History Date:

Tuesday, November 15, 2011

  Actual Average Record
Temperature  
Mean Temperature 72 °F 66 °F  
Max Temperature 81 °F 76 °F 90 °F (1951)
Min Temperature 62 °F 56 °F 32 °F (1969)
Degree Days  
Heating Degree Days 0 3  
Month to date heating degree days 31 27  
Since 1 July heating degree days 43 37  
Cooling Degree Days 7 4  
Month to date cooling degree days 92 78  
Year to date cooling degree days 4001 3429  
Growing Degree Days 22 (Base 50)    
Moisture  
Dew Point 64 °F    
Average Humidity 69    
Maximum Humidity 93    
Minimum Humidity 45    
Precipitation  
Precipitation 0.06 in 0.06 in 3.87 in (1934)
Month to date precipitation 0.34 1.18  
Year to date precipitation 10.88 29.14  
Snow  
Snow 0.00 in - - ()
Month to date snowfall 0.0  
Since 1 July snowfall 0.0  
Since 1 September snowfall 0.0  
Snow Depth 0.00 in    
Sea Level Pressure  
Sea Level Pressure 29.76 in    
Wind  
Wind Speed 10 mph (SW)    
Max Wind Speed 33 mph    
Max Gust Speed 41 mph    
Visibility 10 miles    
Events Rain , Thunderstorm    
T = Trace of Precipitation, MM = Missing Value Source: NWS Daily Summary

Daily Weather History Graph

Daily Weather History Graph

Search for Another Location

Airport or City:

Trip Planner

Search our weather history database for the weather conditions in past years. The results will help you decide how hot, cold, wet, or windy it might be!

Date:

Astronomy

Nov. 15, 2011 Rise Set
Actual Time 6:51 AM CST 5:37 PM CST
Civil Twilight 6:26 AM CST 6:02 PM CST
Nautical Twilight 5:58 AM CST 6:30 PM CST
Astronomical Twilight 5:30 AM CST 6:58 PM CST
Moon 9:49 PM CST (11/15) 10:48 AM CST (11/15)
Length of Visible Light 11h 36m
Length of Day
10h 46m
Waning Gibbous, 79% of the Moon is Illuminated
Nov 15
Waning Gibbous
Nov 18
Last Quarter
Nov 25
New
Dec 2
First Quarter
Dec 10
Full

Hourly Weather History & Observations

Time (CST) Temp. Heat Index Dew Point Humidity Pressure Visibility Wind Dir Wind Speed Gust Speed Precip Events Conditions
12:51 AM 75.0 °F - 71.1 °F 87% 29.76 in 10.0 mi SSE 11.5 mph - N/A   Partly Cloudy
1:51 AM 73.9 °F - 71.1 °F 91% 29.75 in 10.0 mi SSE 11.5 mph - N/A   Scattered Clouds
2:51 AM 73.9 °F - 70.0 °F 87% 29.74 in 10.0 mi SSE 9.2 mph - N/A   Scattered Clouds
3:51 AM 73.9 °F - 71.1 °F 91% 29.73 in 10.0 mi South 8.1 mph - N/A   Overcast
4:51 AM 75.0 °F - 71.1 °F 87% 29.71 in 10.0 mi SE 11.5 mph - N/A   Mostly Cloudy
5:51 AM 75.0 °F - 71.1 °F 87% 29.72 in 10.0 mi SSE 11.5 mph - N/A   Mostly Cloudy
6:51 AM 75.2 °F - 71.6 °F 89% 29.76 in 10.0 mi South 6.9 mph - N/A   Overcast
7:51 AM 75.9 °F - 71.1 °F 85% 29.75 in 10.0 mi South 12.7 mph - 0.00 in   Mostly Cloudy
8:31 AM 71.6 °F - 64.4 °F 78% 29.79 in 10.0 mi West 31.1 mph 41.4 mph 0.00 in Rain Light Rain
8:37 AM 68.0 °F - 62.6 °F 83% 29.79 in 10.0 mi WNW 23.0 mph 41.4 mph 0.00 in Rain Rain
8:51 AM 66.9 °F - 63.0 °F 87% 29.79 in 7.0 mi West 18.4 mph 27.6 mph 0.01 in Rain Rain
9:24 AM 69.8 °F - 64.4 °F 83% 29.80 in 10.0 mi WNW 17.3 mph - 0.01 in   Mostly Cloudy
9:51 AM 71.1 °F - 63.0 °F 75% 29.80 in 10.0 mi WNW 13.8 mph - 0.01 in   Mostly Cloudy
10:51 AM 73.0 °F - 64.0 °F 73% 29.78 in 10.0 mi WNW 11.5 mph - N/A   Overcast
11:51 AM 71.1 °F - 64.9 °F 81% 29.77 in 10.0 mi WNW 6.9 mph - 0.03 in   Overcast
11:58 AM 71.6 °F - 64.4 °F 78% 29.77 in 10.0 mi WSW 3.5 mph - N/A Thunderstorm Thunderstorm
12:30 PM 73.4 °F - 64.4 °F 73% 29.75 in 10.0 mi SW 5.8 mph - 0.01 in   Scattered Clouds
12:51 PM 73.0 °F - 66.0 °F 79% 29.74 in 10.0 mi SW 15.0 mph - 0.01 in   Mostly Cloudy
1:51 PM 73.9 °F - 64.9 °F 73% 29.73 in 10.0 mi West 16.1 mph - N/A   Mostly Cloudy
2:51 PM 77.0 °F - 64.0 °F 64% 29.71 in 10.0 mi WSW 13.8 mph - N/A   Mostly Cloudy
3:51 PM 81.0 °F 81.7 °F 61.0 °F 50% 29.70 in 10.0 mi WSW 13.8 mph - N/A   Scattered Clouds
4:51 PM 81.0 °F 81.1 °F 57.9 °F 45% 29.72 in 10.0 mi West 11.5 mph - N/A   Partly Cloudy
5:51 PM 73.9 °F - 57.0 °F 55% 29.73 in 10.0 mi West 5.8 mph - N/A   Partly Cloudy
6:51 PM 68.0 °F - 55.9 °F 65% 29.76 in 10.0 mi SSW 4.6 mph - N/A   Partly Cloudy
7:51 PM 68.0 °F - 57.0 °F 68% 29.78 in 10.0 mi West 4.6 mph - N/A   Clear
8:51 PM 63.0 °F - 55.0 °F 75% 29.79 in 10.0 mi South 6.9 mph - N/A   Clear
9:51 PM 64.0 °F - 54.0 °F 70% 29.79 in 10.0 mi SSW 9.2 mph - N/A   Clear
10:51 PM 63.0 °F - 54.0 °F 72% 29.79 in 10.0 mi SSW 8.1 mph - N/A   Clear
11:51 PM 64.0 °F - 53.1 °F 67% 29.79 in 10.0 mi WNW 4.6 mph - N/A   Clear